Regional Weather Roundup
Issued by NWS

Home | Current Version | Previous Version | Text Only | Print | Product List | Glossary Off
Versions: 1 2 3 4 5 6 7 8 9 10 11 12 13 14 15 16 17 18 19 20 21 22 23 24 25 26 27 28 29 30 31 32 33 34 35 36 37 38 39 40 41 42 43 44 45 46 47 48 49 50

000
ASUS43 KOAX 271402
RWRNE

WEATHER ROUNDUP FOR NEBRASKA
NATIONAL WEATHER SERVICE OMAHA NE
800 AM CST MON FEB 27 2017

NOTES: SATELLITE DATA IS BEING USED TO AUGMENT CLOUD COVER ABOVE
       12000 FEET.
       "FAIR" INDICATES FEW OR NO CLOUDS BELOW 12,000 FEET WITH NO
       SIGNIFICANT WEATHER AND/OR OBSTRUCTIONS TO VISIBILITY.

  * THESE STATIONS DO NOT REPORT WEATHER SUCH AS RAIN...SNOW OR FOG.

NEZ001>004-019>022-054>056-271500-
NEBRASKA PANHANDLE

CITY           SKY/WX    TMP DP  RH WIND       PRES   REMARKS
SCOTTSBLUFF    CLOUDY    10   4  76 SE3       29.69S
ALLIANCE       CLOUDY    12   6  77 SE9       29.67F WCI   0
CHADRON        CLOUDY    26  15  63 SW10      29.66S WCI  16
KIMBALL        CLOUDY    11   8  87 W3        29.66S
SIDNEY         CLOUDY    17  12  80 S10       29.69F WCI   5
$$

NEZ057>060-069>072-079>082-271500-
SOUTHWEST NEBRASKA

CITY           SKY/WX    TMP DP  RH WIND       PRES   REMARKS
NORTH PLATTE   CLOUDY    16  11  80 SE3       29.84F
IMPERIAL       CLOUDY    18  13  80 SE8       29.78F WCI   8
LEXINGTON      CLOUDY    20  15  81 CALM      29.88R
MCCOOK         CLOUDY    16  11  80 CALM      29.86S
OGALLALA       CLEAR     23  13  65 CALM      29.78F
$$

NEZ005>010-023>029-035>040-094-271500-
NORTH CENTRAL NEBRASKA

CITY           SKY/WX    TMP DP  RH WIND       PRES   REMARKS
VALENTINE      CLOUDY    26  10  50 SW18      29.74F WCI  13
AINSWORTH      CLOUDY    25  14  63 S21G26    29.77F WCI  10
BROKEN BOW     CLOUDY    21  12  68 S10       29.85F WCI  10
O`NEILL        PTCLDY    19  11  70 S6        29.85F WCI  11
ORD            CLEAR     15  11  83 CALM      29.87F
THEDFORD       PTCLDY    28  13  54 S18       29.79S WCI  15
$$

NEZ041-046>049-061>064-073>077-083>087-271500-
SOUTH CENTRAL NEBRASKA

CITY           SKY/WX    TMP DP  RH WIND       PRES   REMARKS
GRAND ISLAND   CLEAR     28  20  71 S5        29.91F WCI  23
AURORA         CLEAR     27  19  71 S3        29.92S
HASTINGS       PTCLDY    28  17  63 S6        29.92S WCI  22
HEBRON         CLEAR     24  20  86 CALM      29.95R
HOLDREGE       CLOUDY    21  13  71 S5        29.88S WCI  15
KEARNEY *      CLEAR     23  18  80 S6        29.90S WCI  16
YORK           CLEAR     27  21  80 CALM      29.94R
$$

NEZ011>018-030>034-042>045-271500-
NORTHEAST NEBRASKA

CITY           SKY/WX    TMP DP  RH WIND       PRES   REMARKS
NORFOLK        CLEAR     22  17  81 S6        29.92S WCI  14
ALBION         CLEAR     17  13  84 CALM      29.91F
BLAIR          CLEAR     28  22  76 S5        29.96R WCI  23
FREMONT        CLEAR     26  22  87 CALM      29.97R
TEKAMAH        CLEAR     21  20  96 CALM      29.98R FOG
WAYNE          CLEAR     18  16  90 S6        29.93S WCI  10
$$

NEZ050>053-065>068-078-088>093-271500-
SOUTHEAST NEBRASKA

CITY           SKY/WX    TMP DP  RH WIND       PRES   REMARKS
LINCOLN        CLEAR     23  18  81 CALM      29.98R
OMAHA EPPLEY   CLEAR     27  21  78 CALM      29.98S
BEATRICE       CLEAR     27  23  85 CALM      29.96R
FALLS CITY     SUNNY     26  25  96 SE5       30.00R FOG     WCI  20
NEBRASKA CITY  SUNNY     26  21  81 S8        29.98R WCI  18
PLATTSMOUTH    MOSUNNY   30  21  71 SE8       29.97S WCI  22
$$

NEZ044-045-051>053-067-271500-
OMAHA AREA

CITY           SKY/WX    TMP DP  RH WIND       PRES   REMARKS
OMAHA EPPLEY   CLEAR     27  21  78 CALM      29.98S
BLAIR          CLEAR     28  22  76 S5        29.96R WCI  23
FREMONT        CLEAR     26  22  87 CALM      29.97R
MILLARD        CLEAR     26  24  93 CALM      29.98R
OFFUTT AFB     CLEAR     24  21  89 CALM      29.98R
PLATTSMOUTH    MOSUNNY   30  21  71 SE8       29.97S WCI  22
WAHOO          FAIR      24  22  91 SE5       29.96S WCI  18
$$



USA.gov is the U.S. government's official web portal to all federal, state and local government web resources and services.